Weather History for Independence, KS

Change the Weather History Date:

Sunday, March 17, 2013

  Actual Average (KCFV) Record (KCFV)
Temperature  
Mean Temperature 38 °F -  
Max Temperature 41 °F 55 °F 82 °F (2011)
Min Temperature 35 °F 34 °F 23 °F (2014)
Degree Days  
Heating Degree Days 27    
Moisture  
Dew Point 35 °F    
Average Humidity 92    
Maximum Humidity 100    
Minimum Humidity 75    
Precipitation  
Precipitation 0.00 in - - ()
Sea Level Pressure  
Sea Level Pressure 29.83 in    
Wind  
Wind Speed 16 mph (NE)    
Max Wind Speed 24 mph    
Max Gust Speed 34 mph    
Visibility 7 miles    
Events Rain , Thunderstorm    
Averages and records for this station are not official NWS values.
T = Trace of Precipitation, MM = Missing Value Source: NWS Daily Summary

Daily Weather History Graph

Daily Weather History Graph

Search for Another Location

Airport:

Trip Planner

Search our weather history database for the weather conditions in past years. The results will help you decide how hot, cold, wet, or windy it might be!

Date:

Astronomy

Mar. 17, 2013 Rise Set
Actual Time 7:30 AM CDT 7:32 PM CDT
Civil Twilight 7:04 AM CDT 7:58 PM CDT
Nautical Twilight 6:34 AM CDT 8:28 PM CDT
Astronomical Twilight 6:04 AM CDT 8:59 PM CDT
Moon 10:51 AM CDT (3/17) 12:34 AM CDT (3/17)
Length of Visible Light 12h 53m
Length of Day
12h 01m
Waxing Crescent, 31% of the Moon is Illuminated
Mar 17
Waxing Crescent
Mar 19
First Quarter
Mar 27
Full
Apr 2
Last Quarter
Apr 10
New

Hourly Weather History & Observations

Time (CDT) Temp. Windchill Dew Point Humidity Pressure Visibility Wind Dir Wind Speed Gust Speed Precip Events Conditions
12:15 AM 41.0 °F 32.5 °F 33.8 °F 76% 29.94 in 10.0 mi NE 17.3 mph - N/A Thunderstorm Overcast
12:35 AM 41.0 °F 31.1 °F 33.8 °F 76% 29.93 in 10.0 mi NE 23.0 mph 26.5 mph N/A   Mostly Cloudy
12:55 AM 41.0 °F 31.9 °F 33.8 °F 76% 29.95 in 10.0 mi NNE 19.6 mph 25.3 mph N/A Thunderstorm Overcast
1:15 AM 39.2 °F 29.3 °F 33.8 °F 81% 29.94 in 10.0 mi NE 20.7 mph 29.9 mph N/A   Overcast
1:35 AM 39.2 °F 28.5 °F 33.8 °F 81% 29.93 in 10.0 mi NE 24.2 mph - N/A   Overcast
1:55 AM 39.2 °F 28.5 °F 32.0 °F 75% 29.92 in 10.0 mi NE 24.2 mph 34.5 mph N/A   Overcast
2:15 AM 37.4 °F 26.4 °F 33.8 °F 87% 29.92 in 10.0 mi NE 23.0 mph 28.8 mph N/A   Overcast
2:35 AM 37.4 °F 27.2 °F 33.8 °F 87% 29.92 in 10.0 mi NE 19.6 mph 26.5 mph N/A   Overcast
2:55 AM 37.4 °F 27.5 °F 33.8 °F 87% 29.93 in 10.0 mi NNE 18.4 mph 23.0 mph N/A   Overcast
3:15 AM 37.4 °F 26.6 °F 32.0 °F 81% 29.93 in 10.0 mi NE 21.9 mph 28.8 mph N/A   Overcast
3:35 AM 37.4 °F 27.2 °F 33.8 °F 87% 29.92 in 10.0 mi NNE 19.6 mph 24.2 mph N/A   Overcast
3:55 AM 37.4 °F 28.5 °F 33.8 °F 87% 29.92 in 10.0 mi NNE 15.0 mph 23.0 mph N/A   Overcast
4:15 AM 37.4 °F 26.9 °F 32.0 °F 81% 29.92 in 10.0 mi NE 20.7 mph 26.5 mph N/A Thunderstorm Overcast
4:35 AM 35.6 °F 25.2 °F 33.8 °F 93% 29.92 in 5.0 mi NE 18.4 mph 26.5 mph N/A Rain Light Rain
4:55 AM 35.6 °F 25.5 °F 33.8 °F 93% 29.92 in 10.0 mi NE 17.3 mph 26.5 mph N/A Rain , Thunderstorm Light Thunderstorms and Rain
5:15 AM 35.6 °F 24.5 °F 33.8 °F 93% 29.91 in 7.0 mi NE 20.7 mph 25.3 mph N/A   Overcast
5:35 AM 35.6 °F 25.9 °F 33.8 °F 93% 29.92 in 10.0 mi NNE 16.1 mph 25.3 mph N/A   Overcast
5:55 AM 35.6 °F 24.8 °F 33.8 °F 93% 29.92 in 10.0 mi NE 19.6 mph 25.3 mph N/A Thunderstorm Unknown
6:15 AM 35.6 °F 25.5 °F 33.8 °F 93% 29.93 in 10.0 mi NE 17.3 mph 24.2 mph N/A Rain Rain
6:35 AM 35.6 °F 26.2 °F 33.8 °F 93% 29.92 in 7.0 mi NE 15.0 mph - N/A   Drizzle
6:55 AM 35.6 °F 25.9 °F 33.8 °F 93% 29.92 in 5.0 mi NE 16.1 mph - N/A   Light Drizzle
7:15 AM 35.6 °F 25.9 °F 33.8 °F 93% 29.91 in 7.0 mi NE 16.1 mph - N/A   Overcast
7:35 AM 35.6 °F 25.5 °F 33.8 °F 93% 29.91 in 10.0 mi ENE 17.3 mph 23.0 mph N/A   Overcast
7:55 AM 35.6 °F 27.5 °F 33.8 °F 93% 29.91 in 10.0 mi NE 11.5 mph 18.4 mph N/A   Overcast
8:15 AM 35.6 °F 25.9 °F 33.8 °F 93% 29.91 in 10.0 mi NE 16.1 mph 20.7 mph N/A   Overcast
8:35 AM 37.4 °F 27.8 °F 33.8 °F 87% 29.90 in 10.0 mi NE 17.3 mph - N/A   Overcast
8:55 AM 37.4 °F 27.8 °F 35.6 °F 93% 29.89 in 10.0 mi NE 17.3 mph - N/A   Overcast
9:35 AM 37.4 °F 29.8 °F 35.6 °F 93% 29.90 in 10.0 mi NE 11.5 mph - N/A   Overcast
9:55 AM 37.4 °F 28.9 °F 35.6 °F 93% 29.90 in 10.0 mi ENE 13.8 mph - N/A   Overcast
10:15 AM 37.4 °F 28.9 °F 35.6 °F 93% 29.90 in 10.0 mi NE 13.8 mph 17.3 mph N/A   Overcast
10:35 AM 37.4 °F 29.8 °F 35.6 °F 93% 29.89 in 10.0 mi ENE 11.5 mph - N/A   Overcast
10:55 AM 37.4 °F 29.3 °F 35.6 °F 93% 29.88 in 10.0 mi NE 12.7 mph 16.1 mph N/A   Overcast
11:15 AM 37.4 °F 27.8 °F 35.6 °F 93% 29.88 in 10.0 mi NE 17.3 mph - N/A   Overcast
11:35 AM 37.4 °F 29.3 °F 35.6 °F 93% 29.88 in 10.0 mi NE 12.7 mph 20.7 mph N/A   Overcast
11:55 AM 37.4 °F 27.5 °F 35.6 °F 93% 29.84 in 10.0 mi ENE 18.4 mph 26.5 mph N/A   Overcast
12:15 PM 37.4 °F 27.5 °F 35.6 °F 93% 29.86 in 7.0 mi NE 18.4 mph 21.9 mph N/A   Overcast
12:35 PM 37.4 °F 28.2 °F 35.6 °F 93% 29.85 in 10.0 mi ENE 16.1 mph 20.7 mph N/A   Overcast
12:55 PM 39.2 °F 31.2 °F 35.6 °F 87% 29.85 in 7.0 mi ENE 13.8 mph 17.3 mph N/A   Overcast
1:15 PM 39.2 °F 29.6 °F 37.4 °F 93% 29.80 in 7.0 mi East 19.6 mph 25.3 mph N/A Rain Light Rain
1:35 PM 39.2 °F 31.2 °F 37.4 °F 93% 29.80 in 10.0 mi ENE 13.8 mph 17.3 mph N/A   Overcast
1:55 PM 39.2 °F 29.6 °F 37.4 °F 93% 29.78 in 10.0 mi ENE 19.6 mph - N/A   Overcast
2:15 PM 39.2 °F 32.0 °F 37.4 °F 93% 29.79 in 7.0 mi ENE 11.5 mph 17.3 mph N/A   Overcast
2:35 PM 39.2 °F 34.2 °F 37.4 °F 93% 29.80 in 7.0 mi NE 6.9 mph - N/A Rain Light Rain
2:55 PM 39.2 °F 32.5 °F 37.4 °F 93% 29.76 in 4.0 mi NE 10.4 mph - N/A   Light Drizzle
3:15 PM 39.2 °F 32.5 °F 37.4 °F 93% 29.74 in 5.0 mi NE 10.4 mph - N/A   Overcast
3:35 PM 39.2 °F 33.0 °F 37.4 °F 93% 29.76 in 2.0 mi North 9.2 mph - N/A   Overcast
3:55 PM 39.2 °F 33.0 °F 37.4 °F 93% 29.75 in 2.0 mi NNE 9.2 mph - N/A Rain Light Rain
4:15 PM 39.2 °F 33.0 °F 37.4 °F 93% 29.75 in 2.0 mi North 9.2 mph - N/A   Light Drizzle
4:35 PM 37.4 °F 29.8 °F 37.4 °F 100% 29.74 in 1.5 mi NNE 11.5 mph - N/A   Light Drizzle
4:55 PM 37.4 °F 30.3 °F 37.4 °F 100% 29.74 in 1.8 mi NNE 10.4 mph - N/A   Light Drizzle
5:15 PM 37.4 °F 30.3 °F 37.4 °F 100% 29.73 in 2.0 mi North 10.4 mph - N/A   Overcast
5:35 PM 37.4 °F 31.4 °F 37.4 °F 100% 29.73 in 2.5 mi NNE 8.1 mph - N/A   Overcast
5:55 PM 37.4 °F 30.8 °F 37.4 °F 100% 29.71 in 5.0 mi NE 9.2 mph - N/A   Overcast
6:15 PM 37.4 °F 30.8 °F 37.4 °F 100% 29.71 in 7.0 mi NE 9.2 mph - N/A   Overcast
6:35 PM 37.4 °F 31.4 °F 37.4 °F 100% 29.72 in 7.0 mi NNE 8.1 mph - N/A   Overcast
6:55 PM 37.4 °F 30.3 °F 37.4 °F 100% 29.71 in 5.0 mi NE 10.4 mph - N/A   Overcast
7:15 PM 37.4 °F 32.1 °F 37.4 °F 100% 29.71 in 7.0 mi NNE 6.9 mph - N/A   Overcast
7:35 PM 37.4 °F 32.1 °F 37.4 °F 100% 29.72 in 10.0 mi NNE 6.9 mph - N/A   Overcast
7:55 PM 37.4 °F 32.1 °F 35.6 °F 93% 29.72 in 10.0 mi NE 6.9 mph - N/A   Overcast
8:15 PM 37.4 °F 32.1 °F 35.6 °F 93% 29.72 in 10.0 mi NNE 6.9 mph - N/A   Overcast
8:35 PM 37.4 °F 32.1 °F 35.6 °F 93% 29.72 in 7.0 mi NNE 6.9 mph - N/A   Overcast
8:55 PM 37.4 °F 32.8 °F 35.6 °F 93% 29.72 in 4.0 mi NNE 5.8 mph - N/A   Overcast
9:15 PM 37.4 °F 33.8 °F 35.6 °F 93% 29.72 in 4.0 mi NNE 4.6 mph - N/A   Overcast
9:35 PM 37.4 °F 33.8 °F 35.6 °F 93% 29.73 in 4.0 mi North 4.6 mph - N/A   Overcast
9:55 PM 37.4 °F 33.8 °F 37.4 °F 100% 29.73 in 3.0 mi North 4.6 mph - N/A   Overcast
10:15 PM 37.4 °F 32.1 °F 35.6 °F 93% 29.74 in 3.0 mi North 6.9 mph - N/A   Overcast
10:35 PM 37.4 °F 31.4 °F 35.6 °F 93% 29.75 in 3.0 mi North 8.1 mph - N/A   Overcast
10:55 PM 37.4 °F 34.9 °F 35.6 °F 93% 29.75 in 2.5 mi NNW 3.5 mph - N/A   Overcast
11:15 PM 37.4 °F 34.9 °F 35.6 °F 93% 29.74 in 3.0 mi North 3.5 mph - N/A   Overcast
11:35 PM 37.4 °F 32.8 °F 35.6 °F 93% 29.72 in 3.0 mi NNE 5.8 mph - N/A   Overcast
11:55 PM 37.4 °F - 35.6 °F 93% 29.72 in 3.0 mi Calm Calm - N/A   Overcast